[[{"header":{"parameterUnit":"m.s-1","parameterCategory":1,"la1":30.2991,"la2":30.254,"lo1":-89.0895,"lo2":-89.0444,"dy":0.0017,"dx":0.0017,"nx":28,"ny":28,"refTime":"2023-03-29T21:00:00:Z","depth":0,"parameterNumber":2,"parameterNumberName":"U-component_of_WINDS"},"data":[0,0,0,0,0,0,0,0,0,0,0,0,0,0,0,0,0,0,0,0,0,0,0,0,0,0,0,0,0,0,0,0,0,0,0,0,0,0,0,0,0,0,0,0,0,0,0,0,0,0,0,0,0,0,0,0,0,0,-3.6481,-3.6481,0,-3.652,-3.652,-3.6521,-3.6403,-3.6399,-3.6396,-3.6392,-3.6433,-3.6438,-3.6442,0,0,0,0,0,0,0,0,0,0,0,0,0,-3.6303,-3.6307,-3.648,-3.6481,-3.6481,-3.652,-3.652,-3.6521,-3.6404,-3.6399,-3.6395,-3.6391,-3.6432,-3.6437,-3.6442,0,0,0,0,0,0,0,0,0,0,0,0,0,-3.6365,-3.6308,-3.648,-3.6428,-3.6423,-3.652,-3.652,-3.6521,-3.6404,-3.6399,-3.6394,-3.6389,-3.643,-3.6437,-3.6443,-3.6593,0,0,-3.6464,-3.6466,0,0,0,0,0,0,0,0,-3.6362,-3.6372,-3.6435,-3.6431,-3.6427,-3.6451,-3.6473,-3.6545,-3.6406,-3.6412,-3.6392,-3.6386,-3.6444,-3.6449,-3.6468,-3.6595,-3.6596,-3.6464,-3.6468,-3.6471,-3.6473,0,0,0,0,0,0,0,-3.6358,-3.637,-3.6496,-3.6436,-3.6431,-3.6402,-3.6405,-3.6486,-3.6458,-3.6411,-3.6402,-3.6408,-3.644,-3.6462,-3.6468,-3.6597,-3.6464,-3.647,-3.6474,-3.6477,-3.6847,-3.6853,0,0,0,0,0,0,-3.636,-3.6367,-3.6495,-3.6497,-3.638,-3.6409,-3.6412,-3.6449,-3.6456,-3.6452,-3.6413,-3.6403,-3.6453,-3.6461,-3.6469,-3.6644,-3.6471,-3.6477,-3.6481,-3.6842,-3.6849,-3.6855,0,0,0,0,0,0,-3.6357,-3.6373,-3.6493,-3.643,-3.6443,-3.6418,-3.646,-3.6452,-3.6474,-3.6458,-3.6452,-3.6441,-3.6449,-3.646,-3.6563,-3.6644,-3.648,-3.6486,-3.6835,-3.6844,-3.6852,-3.6996,0,0,0,0,0,0,-3.6352,-3.6372,-3.6429,-3.6432,-3.6447,-3.6587,-3.6465,-3.6457,-3.6486,-3.6473,-3.6482,-3.6479,-3.6446,-3.6553,-3.6569,-3.665,-3.6492,-3.6827,-3.6839,-3.6849,-3.6984,-3.7009,-3.703,0,0,0,0,0,-3.6346,-3.6469,-3.6433,-3.6449,-3.6517,-3.6592,-3.66,-3.6559,-3.6493,-3.6549,-3.6539,-3.6478,-3.6633,-3.6565,-3.6582,-3.6666,-3.6822,-3.6836,-3.6848,-3.6974,-3.7004,-3.703,0,0,0,0,0,0,-3.6477,-3.6468,-3.6428,-3.6555,-3.6575,-3.6572,-3.6642,-3.6593,-3.6632,-3.6619,-3.6567,-3.657,-3.6682,-3.6684,-3.6609,-3.6811,-3.6716,-3.6733,-3.6806,-3.6834,-3.6857,-3.6854,-3.6497,0,0,0,0,0,-3.652,-3.6581,-3.657,-3.6683,-3.6695,-3.6667,-3.6698,-3.6665,-3.6684,-3.6692,-3.6689,-3.671,-3.6762,-3.6798,-3.6846,-3.6984,-3.6984,-3.705,-3.7073,-3.7092,-3.7108,-3.718,-3.7209,-3.6898,-3.6898,-3.6898,0,0,-3.661,-3.6613,-3.6655,-3.6709,-3.6721,-3.6785,-3.6675,-3.6748,-3.6795,-3.6703,-3.6799,-3.6798,-3.6818,-3.6939,-3.6992,-3.6944,-3.7193,-3.7109,-3.7124,-3.7129,-3.7196,-3.7226,-3.7252,-3.6907,-3.6906,-3.6904,0,0,-3.6807,-3.6816,-3.6911,-3.6924,-3.6943,-3.6924,-3.6947,-3.6951,-3.6946,-3.7043,-3.6974,-3.703,-3.7122,-3.7138,-3.7159,-3.7362,-3.7307,-3.7379,-3.7499,-3.757,-3.7595,-3.7616,-3.7688,-3.7715,-3.7394,-3.7395,-3.7395,0,-3.6917,-3.7012,-3.6965,-3.7043,-3.7069,-3.6987,-3.7083,-3.7098,-3.7132,-3.7152,-3.7097,-3.7211,-3.7218,-3.7342,-3.7391,-3.7411,-3.7435,-3.7378,-3.7595,-3.7616,-3.7635,-3.7703,-3.7731,-3.7403,-3.7402,-3.7402,-3.7401,0,-3.7146,-3.7212,-3.7286,-3.732,-3.7354,-3.744,-3.7407,-3.7447,-3.7411,-3.7397,-3.7496,-3.7502,-3.7549,-3.7576,-3.7542,-3.7695,-3.7664,-3.7604,-3.7507,-3.7674,-3.7737,-3.7763,-3.7416,-3.7413,-3.741,-3.7408,0,0,-3.7426,-3.7433,-3.7461,-3.7476,-3.749,-3.754,-3.7623,-3.7668,-3.7704,-3.773,-3.7797,-3.7877,-3.782,-3.7844,-3.781,-3.7873,-3.8033,-3.7804,-3.7804,-3.7846,-3.8201,-3.8247,-3.8278,-3.7997,-3.8001,-3.8005,-3.8199,0,-3.762,-3.7761,-3.7721,-3.7862,-3.7922,-3.7846,-3.7917,-3.7934,-3.7923,-3.7973,-3.7961,-3.8018,-3.7939,-3.7953,-3.8011,-3.8001,-3.8103,-3.7987,-3.8059,-3.8062,-3.8056,-3.8311,-3.8359,-3.8542,-3.8224,-3.8228,-3.8231,0,-3.7865,-3.79,-3.8047,-3.8051,-3.8075,-3.814,-3.8178,-3.8227,-3.8244,-3.8231,-3.8258,-3.8211,-3.8292,-3.8195,-3.8305,-3.8227,-3.8254,-3.8253,-3.8259,-3.8264,-3.8157,-3.8322,-3.8599,-3.8627,-3.8269,-3.8266,-3.8263,0,-3.8055,-3.8139,-3.8237,-3.8252,-3.8259,-3.8306,-3.8311,-3.8323,-3.8353,-3.8387,-3.8405,-3.8449,-3.8472,-3.8506,-3.8473,-3.8406,-3.8588,-3.8488,-3.858,-3.8581,-3.8622,-3.862,-3.8907,-3.864,-3.864,-3.8639,-3.8639,0,-3.8276,-3.8368,-3.8322,-3.8383,-3.8484,-3.8438,-3.854,-3.8536,-3.8547,-3.8605,-3.8542,-3.8598,-3.855,-3.8602,-3.8577,-3.8671,-3.8683,-3.8675,-3.8667,-3.868,-3.8682,-3.8697,-3.8684,-3.8647,-3.8645,-3.8644,-3.8642,0,-3.8505,-3.8478,-3.858,-3.8578,-3.8579,-3.8654,-3.8652,-3.8708,-3.8692,-3.8767,-3.8782,-3.8758,-3.8815,-3.8785,-3.8845,-3.8828,-3.895,-3.8925,-3.8945,-3.8938,-3.9031,-3.9023,-3.9338,-3.9377,-3.9086,-3.9089,-3.9091,0,-3.8647,-3.8716,-3.8722,-3.8756,-3.8765,-3.8822,-3.8852,-3.8809,-3.8843,-3.8867,-3.892,-3.8972,-3.9011,-3.9107,-3.9095,-3.914,-3.9115,-3.9223,-3.9122,-3.9133,-3.9117,-3.9113,-3.9119,-3.9243,-3.9247,-3.925,-3.9252,0,-3.8903,-3.8886,-3.8931,-3.8973,-3.901,-3.9041,-3.9066,-3.9097,-3.9055,-3.9096,-3.9154,-3.9185,-3.9245,-3.9298,-3.9337,-3.9342,-3.929,-3.9284,-3.9307,-3.9322,-3.933,-3.9326,-3.9,-3.9277,-3.9274,-3.9272,-3.9271,-3.927,-3.9092,-3.915,-3.9163,-3.9215,-3.923,-3.9254,-3.9306,-3.9297,-3.9345,-3.9391,-3.9362,-3.9431,-3.9445,-3.9492,-3.9504,-3.9556,-3.9513,-3.9547,-3.9556,-3.9565,-3.9577,-3.9322,-3.9563,-3.9562,-3.9562,-3.9561,-3.9561,0,-3.9344,-3.9348,-3.9397,-3.9434,-3.9476,-3.9423,-3.9448,-3.9486,-3.9547,-3.9564,-3.9604,-3.9671,-3.9721,-3.9713,-3.9759,-3.9802,-3.978,-3.9816,-3.9812,-3.9814,-3.9613,-3.9588,-3.9833,-3.9833,-3.9833,-3.9833,-3.9833,-3.9833,-3.948,-3.9574,-3.9559,-3.966,-3.9663,-3.9729,-3.9748,-3.977,-3.9784,-3.9861,-3.9903,-3.9897,-3.9904,-3.995,-3.9994,-3.999,-4.0009,-4.0054,-4.0042,-3.9855,-3.9828,-3.9802,-3.9778,-4.0059,-4.0059,-4.0237,-4.0239,-4.024]},{"header":{"parameterUnit":"m.s-1","parameterCategory":1,"la1":30.2991,"la2":30.254,"lo1":-89.0895,"lo2":-89.0444,"dy":0.0017,"dx":0.0017,"nx":28,"ny":28,"refTime":"2023-03-29T21:00:00:Z","depth":0,"parameterNumber":3,"parameterNumberName":"V-component_of_WINDS"},"data":[0,0,0,0,0,0,0,0,0,0,0,0,0,0,0,0,0,0,0,0,0,0,0,0,0,0,0,0,0,0,0,0,0,0,0,0,0,0,0,0,0,0,0,0,0,0,0,0,0,0,0,0,0,0,0,0,0,0,-1.3694,-1.3694,0,-1.3681,-1.3681,-1.3681,-1.3681,-1.3681,-1.3681,-1.3682,-1.3668,-1.3667,-1.3666,0,0,0,0,0,0,0,0,0,0,0,0,0,-1.3716,-1.3715,-1.3694,-1.3694,-1.3694,-1.3681,-1.3681,-1.3681,-1.3681,-1.3681,-1.3681,-1.3682,-1.3668,-1.3667,-1.3666,0,0,0,0,0,0,0,0,0,0,0,0,0,-1.3705,-1.3715,-1.3694,-1.3692,-1.3692,-1.3681,-1.3681,-1.3681,-1.3681,-1.3681,-1.3681,-1.3682,-1.3668,-1.3667,-1.3666,-1.3656,0,0,-1.3664,-1.3664,0,0,0,0,0,0,0,0,-1.3706,-1.3704,-1.3693,-1.3692,-1.3692,-1.3683,-1.3683,-1.3672,-1.3681,-1.3685,-1.3682,-1.3682,-1.3672,-1.3671,-1.3668,-1.3655,-1.3655,-1.3664,-1.3663,-1.3663,-1.3663,0,0,0,0,0,0,0,-1.3706,-1.3705,-1.3689,-1.3692,-1.3692,-1.3691,-1.369,-1.3681,-1.3677,-1.3685,-1.3685,-1.3683,-1.3672,-1.3669,-1.3668,-1.3655,-1.3664,-1.3663,-1.3663,-1.3662,-1.363,-1.3629,0,0,0,0,0,0,-1.3708,-1.3705,-1.3689,-1.3688,-1.37,-1.3691,-1.3689,-1.3686,-1.3678,-1.3677,-1.3683,-1.3683,-1.367,-1.3669,-1.3667,-1.3653,-1.3663,-1.3662,-1.3662,-1.363,-1.3629,-1.3629,0,0,0,0,0,0,-1.3708,-1.3706,-1.369,-1.3697,-1.3695,-1.369,-1.3686,-1.3685,-1.3682,-1.3676,-1.3675,-1.3681,-1.367,-1.3669,-1.3658,-1.3652,-1.3662,-1.3661,-1.363,-1.363,-1.3629,-1.3625,0,0,0,0,0,0,-1.3709,-1.3706,-1.3703,-1.3697,-1.3694,-1.3682,-1.3686,-1.3685,-1.3681,-1.3681,-1.3674,-1.3673,-1.367,-1.3659,-1.3657,-1.3651,-1.3661,-1.3631,-1.363,-1.3629,-1.3625,-1.3624,-1.3623,0,0,0,0,0,-1.371,-1.3703,-1.3703,-1.3701,-1.369,-1.3681,-1.368,-1.3678,-1.368,-1.3676,-1.3672,-1.3673,-1.3653,-1.3658,-1.3656,-1.365,-1.3631,-1.363,-1.3629,-1.3626,-1.3624,-1.3623,0,0,0,0,0,0,-1.371,-1.3702,-1.3702,-1.3694,-1.3688,-1.3682,-1.3677,-1.3677,-1.367,-1.367,-1.3667,-1.3666,-1.3655,-1.3652,-1.3657,-1.3638,-1.3642,-1.3641,-1.3641,-1.3639,-1.3638,-1.3639,-1.366,0,0,0,0,0,-1.3709,-1.3703,-1.3696,-1.3689,-1.3686,-1.3682,-1.3678,-1.3676,-1.367,-1.3668,-1.3663,-1.3657,-1.3649,-1.3644,-1.3637,-1.3625,-1.3622,-1.3619,-1.3618,-1.3617,-1.3616,-1.3606,-1.3604,-1.3626,-1.3626,-1.3626,0,0,-1.3707,-1.3702,-1.3698,-1.3689,-1.3685,-1.3677,-1.368,-1.3673,-1.3667,-1.3667,-1.3656,-1.3652,-1.3645,-1.3633,-1.3628,-1.363,-1.3609,-1.3616,-1.3615,-1.3614,-1.3605,-1.3603,-1.3601,-1.3626,-1.3626,-1.3626,0,0,-1.3699,-1.3695,-1.3688,-1.3683,-1.3675,-1.3672,-1.367,-1.3663,-1.366,-1.365,-1.3649,-1.3641,-1.3628,-1.3622,-1.3617,-1.3604,-1.3603,-1.3602,-1.3595,-1.3586,-1.3584,-1.3583,-1.3576,-1.3574,-1.36,-1.36,-1.36,0,-1.3697,-1.3686,-1.3684,-1.3676,-1.3671,-1.367,-1.3661,-1.3656,-1.3647,-1.3643,-1.3646,-1.3627,-1.3623,-1.3608,-1.3604,-1.3601,-1.3597,-1.3602,-1.3585,-1.3583,-1.3582,-1.3575,-1.3573,-1.36,-1.36,-1.36,-1.36,0,-1.3683,-1.3676,-1.3671,-1.3661,-1.3655,-1.3647,-1.3642,-1.3636,-1.3634,-1.363,-1.3618,-1.3612,-1.3602,-1.3598,-1.3597,-1.3583,-1.3584,-1.3586,-1.359,-1.3579,-1.3573,-1.3571,-1.36,-1.36,-1.36,-1.36,0,0,-1.3677,-1.3664,-1.3662,-1.3656,-1.3647,-1.3641,-1.3631,-1.3621,-1.3615,-1.3608,-1.3599,-1.3587,-1.3587,-1.3582,-1.358,-1.3572,-1.3559,-1.3574,-1.3574,-1.357,-1.3539,-1.3537,-1.3534,-1.3558,-1.3558,-1.3558,-1.3539,0,-1.3667,-1.3651,-1.3647,-1.3632,-1.3624,-1.3622,-1.3613,-1.3605,-1.3601,-1.3592,-1.3586,-1.3577,-1.358,-1.3576,-1.3568,-1.3562,-1.3552,-1.3563,-1.3548,-1.3547,-1.3549,-1.3531,-1.353,-1.3513,-1.3537,-1.3537,-1.3536,0,-1.3654,-1.3645,-1.363,-1.3619,-1.3615,-1.3608,-1.3597,-1.3589,-1.3579,-1.3576,-1.3568,-1.3566,-1.3554,-1.3559,-1.3541,-1.3549,-1.3542,-1.3538,-1.3537,-1.3535,-1.3541,-1.3527,-1.3508,-1.3505,-1.3533,-1.3533,-1.3533,0,-1.3649,-1.3633,-1.3621,-1.3617,-1.3604,-1.3598,-1.3593,-1.3584,-1.3577,-1.3567,-1.3562,-1.3551,-1.3544,-1.3535,-1.3529,-1.3533,-1.3511,-1.3516,-1.3506,-1.3506,-1.3501,-1.3501,-1.3479,-1.3499,-1.3499,-1.3499,-1.3499,0,-1.3638,-1.3628,-1.3618,-1.3611,-1.3599,-1.3594,-1.3581,-1.3576,-1.3567,-1.3557,-1.3554,-1.3545,-1.3538,-1.3527,-1.3522,-1.3506,-1.3504,-1.35,-1.3498,-1.3499,-1.35,-1.3494,-1.3495,-1.3498,-1.3498,-1.3499,-1.3499,0,-1.363,-1.3624,-1.361,-1.3598,-1.3595,-1.3586,-1.3576,-1.3567,-1.3562,-1.3549,-1.3545,-1.3536,-1.3523,-1.3516,-1.3499,-1.3496,-1.3478,-1.3478,-1.3481,-1.348,-1.347,-1.347,-1.3442,-1.3437,-1.3462,-1.3462,-1.3462,0,-1.3623,-1.3615,-1.3602,-1.3595,-1.3589,-1.3578,-1.3571,-1.3564,-1.3556,-1.3543,-1.3535,-1.3522,-1.351,-1.3489,-1.348,-1.3466,-1.3465,-1.3456,-1.3463,-1.3463,-1.3462,-1.3462,-1.346,-1.3454,-1.3454,-1.3454,-1.3454,0,-1.3611,-1.3607,-1.3597,-1.3584,-1.3575,-1.3565,-1.3555,-1.3549,-1.3541,-1.3531,-1.3517,-1.3508,-1.349,-1.3476,-1.3461,-1.3454,-1.3451,-1.3452,-1.3448,-1.3449,-1.345,-1.3447,-1.3476,-1.3452,-1.3452,-1.3453,-1.3453,-1.3453,-1.3602,-1.3594,-1.3583,-1.357,-1.3562,-1.3551,-1.3542,-1.3534,-1.3522,-1.3507,-1.3504,-1.3488,-1.3475,-1.3455,-1.3447,-1.3434,-1.3435,-1.3431,-1.343,-1.3428,-1.3427,-1.3453,-1.3431,-1.3431,-1.3431,-1.3431,-1.3431,0,-1.3589,-1.358,-1.3569,-1.3554,-1.3543,-1.3542,-1.353,-1.3521,-1.3507,-1.3496,-1.3484,-1.3466,-1.3451,-1.344,-1.3424,-1.3415,-1.3413,-1.3411,-1.3411,-1.3409,-1.3427,-1.3431,-1.3412,-1.3412,-1.3412,-1.3412,-1.3412,-1.3412,-1.358,-1.3565,-1.356,-1.3539,-1.3531,-1.3516,-1.3508,-1.3498,-1.3488,-1.3468,-1.3456,-1.3448,-1.3436,-1.3419,-1.3404,-1.3401,-1.3394,-1.3392,-1.3388,-1.3406,-1.3408,-1.341,-1.3413,-1.3391,-1.3391,-1.337,-1.337,-1.337]}]]